[[{"header":{"parameterUnit":"m.s-1","parameterCategory":1,"la1":30.2991,"la2":30.254,"lo1":-89.0895,"lo2":-89.0444,"dy":0.0017,"dx":0.0017,"nx":28,"ny":28,"refTime":"2025-06-11T09:00:00:Z","depth":0,"parameterNumber":2,"parameterNumberName":"U-component_of_WINDS"},"data":[0,0,0,0,0,0,0,0,0,0,0,0,0,0,0,0,0,0,0,0,0,0,0,0,0,0,0,0,0,0,0,0,0,0,0,0,0,0,0,0,0,0,0,0,0,0,0,0,0,0,0,0,0,0,0,0,0,0,-0.7727,-0.7727,0,-0.771,-0.7709,-0.7709,-0.7686,-0.7686,-0.7685,-0.7685,-0.7667,-0.7667,-0.7667,0,0,0,0,0,0,0,0,0,0,0,0,0,-0.7742,-0.7742,-0.7727,-0.7727,-0.7727,-0.771,-0.7709,-0.7709,-0.7686,-0.7686,-0.7685,-0.7685,-0.7667,-0.7667,-0.7667,0,0,0,0,0,0,0,0,0,0,0,0,0,-0.7731,-0.7742,-0.7727,-0.7713,-0.7712,-0.771,-0.7709,-0.7709,-0.7686,-0.7686,-0.7685,-0.7685,-0.7667,-0.7667,-0.7667,-0.7677,0,0,-0.7666,-0.7666,0,0,0,0,0,0,0,0,-0.7732,-0.773,-0.7715,-0.7714,-0.7713,-0.7699,-0.7708,-0.7698,-0.7686,-0.7696,-0.7685,-0.7684,-0.7678,-0.7677,-0.7675,-0.7677,-0.7676,-0.7666,-0.7666,-0.7666,-0.7666,0,0,0,0,0,0,0,-0.7732,-0.7731,-0.772,-0.7715,-0.7713,-0.7708,-0.7706,-0.7706,-0.7691,-0.7695,-0.7693,-0.7692,-0.7678,-0.7676,-0.7675,-0.7675,-0.7666,-0.7666,-0.7666,-0.7666,-0.7686,-0.7686,0,0,0,0,0,0,-0.7735,-0.7732,-0.7721,-0.772,-0.7721,-0.7708,-0.7706,-0.7704,-0.7691,-0.7688,-0.7692,-0.7691,-0.7676,-0.7675,-0.7674,-0.7686,-0.7666,-0.7666,-0.7666,-0.7685,-0.7686,-0.7687,0,0,0,0,0,0,-0.7736,-0.7734,-0.7721,-0.7725,-0.7723,-0.7709,-0.7707,-0.7704,-0.7702,-0.7688,-0.7685,-0.7693,-0.7676,-0.7674,-0.7677,-0.7685,-0.7666,-0.7666,-0.7684,-0.7685,-0.7686,-0.7709,0,0,0,0,0,0,-0.7736,-0.7735,-0.7738,-0.7726,-0.7723,-0.7724,-0.7707,-0.7704,-0.7702,-0.77,-0.7688,-0.7686,-0.7675,-0.7677,-0.7677,-0.7684,-0.7666,-0.7684,-0.7685,-0.7686,-0.7707,-0.7711,-0.7713,0,0,0,0,0,-0.7737,-0.7745,-0.7738,-0.7737,-0.7727,-0.7725,-0.7723,-0.7711,-0.7703,-0.7706,-0.7698,-0.7686,-0.7684,-0.7678,-0.7677,-0.7684,-0.7683,-0.7685,-0.7686,-0.7706,-0.771,-0.7713,0,0,0,0,0,0,-0.7758,-0.7743,-0.7735,-0.774,-0.7734,-0.7721,-0.7725,-0.7715,-0.7711,-0.7709,-0.7694,-0.7692,-0.7697,-0.7691,-0.7684,-0.7695,-0.7682,-0.7683,-0.7698,-0.7701,-0.7704,-0.7705,-0.7666,0,0,0,0,0,-0.7763,-0.7763,-0.775,-0.7755,-0.7752,-0.7739,-0.7738,-0.7729,-0.7722,-0.7719,-0.7711,-0.7705,-0.7703,-0.7702,-0.7699,-0.7707,-0.7705,-0.7712,-0.7715,-0.7717,-0.7718,-0.7723,-0.7726,-0.7691,-0.7691,-0.7691,0,0,-0.7774,-0.7766,-0.7766,-0.7759,-0.7753,-0.7753,-0.7737,-0.7737,-0.7737,-0.7719,-0.7721,-0.7715,-0.7708,-0.7713,-0.7715,-0.7709,-0.7728,-0.7719,-0.7721,-0.7721,-0.7725,-0.7728,-0.7731,-0.7692,-0.7692,-0.7692,0,0,-0.7793,-0.7787,-0.7791,-0.7786,-0.7778,-0.7769,-0.7771,-0.7759,-0.7755,-0.7757,-0.7744,-0.7744,-0.7741,-0.7736,-0.7733,-0.7754,-0.7743,-0.7753,-0.7768,-0.7773,-0.7775,-0.7778,-0.7785,-0.7788,-0.7755,-0.7755,-0.7755,0,-0.7808,-0.7807,-0.7794,-0.7796,-0.7793,-0.7778,-0.7782,-0.7778,-0.7769,-0.7768,-0.7761,-0.7758,-0.7752,-0.7756,-0.7761,-0.776,-0.7761,-0.7754,-0.7776,-0.7778,-0.778,-0.7787,-0.779,-0.7756,-0.7756,-0.7756,-0.7756,0,-0.7825,-0.7825,-0.7829,-0.7821,-0.782,-0.7823,-0.7811,-0.7811,-0.7803,-0.7795,-0.7798,-0.7791,-0.7787,-0.7788,-0.7779,-0.7792,-0.7788,-0.7779,-0.7766,-0.7785,-0.7791,-0.7794,-0.7758,-0.7757,-0.7757,-0.7757,0,0,-0.7855,-0.7842,-0.7844,-0.7841,-0.7832,-0.7832,-0.7835,-0.7831,-0.7831,-0.7827,-0.7829,-0.7828,-0.782,-0.7817,-0.7808,-0.7813,-0.783,-0.7803,-0.7803,-0.7808,-0.7843,-0.785,-0.7853,-0.7823,-0.7824,-0.7824,-0.7844,0,-0.7873,-0.7876,-0.7866,-0.7872,-0.7872,-0.7859,-0.7861,-0.7856,-0.785,-0.785,-0.7843,-0.7843,-0.7832,-0.783,-0.7834,-0.7827,-0.7836,-0.7825,-0.7826,-0.7826,-0.7827,-0.7856,-0.7863,-0.7882,-0.7846,-0.7847,-0.7847,0,-0.7893,-0.789,-0.7896,-0.7888,-0.7888,-0.789,-0.7887,-0.7887,-0.7881,-0.7877,-0.7874,-0.7865,-0.7868,-0.7857,-0.7861,-0.7854,-0.7854,-0.7851,-0.7851,-0.785,-0.7837,-0.7856,-0.7887,-0.789,-0.7851,-0.785,-0.785,0,-0.7914,-0.7912,-0.7916,-0.7914,-0.7904,-0.7906,-0.7903,-0.7897,-0.7896,-0.7893,-0.7893,-0.7891,-0.7889,-0.7889,-0.7879,-0.7872,-0.7885,-0.7873,-0.7882,-0.7882,-0.7884,-0.7884,-0.7916,-0.7885,-0.7885,-0.7885,-0.7885,0,-0.7934,-0.7939,-0.7926,-0.7928,-0.7933,-0.7922,-0.7927,-0.7922,-0.7918,-0.7919,-0.7908,-0.791,-0.7897,-0.7898,-0.7891,-0.7896,-0.7896,-0.7893,-0.7891,-0.7893,-0.7894,-0.7892,-0.7891,-0.7886,-0.7885,-0.7885,-0.7885,0,-0.7959,-0.795,-0.7953,-0.7945,-0.7943,-0.7947,-0.794,-0.7942,-0.7936,-0.7938,-0.7938,-0.7928,-0.7929,-0.792,-0.7919,-0.7914,-0.7922,-0.7918,-0.7924,-0.7922,-0.7932,-0.7931,-0.7964,-0.7968,-0.7935,-0.7935,-0.7935,0,-0.7972,-0.7975,-0.7967,-0.7967,-0.7964,-0.7965,-0.7964,-0.7954,-0.7954,-0.7949,-0.7952,-0.7952,-0.7951,-0.7953,-0.7946,-0.7945,-0.7941,-0.7953,-0.7941,-0.7944,-0.7941,-0.7941,-0.7942,-0.7955,-0.7955,-0.7955,-0.7956,0,-0.7996,-0.7992,-0.7991,-0.7989,-0.7989,-0.7987,-0.7984,-0.7985,-0.7974,-0.7975,-0.7976,-0.7975,-0.7975,-0.7975,-0.7973,-0.797,-0.7961,-0.796,-0.7962,-0.7964,-0.7968,-0.7966,-0.793,-0.7959,-0.7958,-0.7958,-0.7958,-0.7958,-0.8015,-0.8018,-0.8013,-0.8013,-0.801,-0.8008,-0.801,-0.8005,-0.8005,-0.8003,-0.7998,-0.8,-0.7996,-0.7993,-0.7991,-0.7993,-0.7987,-0.799,-0.7991,-0.7992,-0.7993,-0.7968,-0.7993,-0.7992,-0.7992,-0.7992,-0.7992,0,-0.8038,-0.8035,-0.8035,-0.8032,-0.8033,-0.8025,-0.8022,-0.8023,-0.8025,-0.8022,-0.8022,-0.8024,-0.8024,-0.8018,-0.8018,-0.8021,-0.8017,-0.8021,-0.8021,-0.802,-0.7998,-0.7996,-0.8025,-0.8025,-0.8025,-0.8025,-0.8025,-0.8025,-0.8051,-0.8055,-0.8051,-0.8054,-0.8051,-0.8053,-0.8052,-0.8051,-0.8048,-0.805,-0.8051,-0.8047,-0.8044,-0.8044,-0.8044,-0.8043,-0.8043,-0.8049,-0.8046,-0.8025,-0.8022,-0.8019,-0.8017,-0.8049,-0.8049,-0.8068,-0.8068,-0.8068]},{"header":{"parameterUnit":"m.s-1","parameterCategory":1,"la1":30.2991,"la2":30.254,"lo1":-89.0895,"lo2":-89.0444,"dy":0.0017,"dx":0.0017,"nx":28,"ny":28,"refTime":"2025-06-11T09:00:00:Z","depth":0,"parameterNumber":3,"parameterNumberName":"V-component_of_WINDS"},"data":[0,0,0,0,0,0,0,0,0,0,0,0,0,0,0,0,0,0,0,0,0,0,0,0,0,0,0,0,0,0,0,0,0,0,0,0,0,0,0,0,0,0,0,0,0,0,0,0,0,0,0,0,0,0,0,0,0,0,2.6488,2.6488,0,2.6489,2.6489,2.6489,2.6515,2.6516,2.6516,2.6517,2.6514,2.6514,2.6513,0,0,0,0,0,0,0,0,0,0,0,0,0,2.6505,2.6505,2.6488,2.6488,2.6488,2.6489,2.6489,2.6489,2.6515,2.6516,2.6516,2.6517,2.6515,2.6514,2.6513,0,0,0,0,0,0,0,0,0,0,0,0,0,2.6501,2.6505,2.6488,2.6501,2.6502,2.6489,2.6489,2.6489,2.6515,2.6516,2.6517,2.6518,2.6515,2.6514,2.6513,2.6486,0,0,2.651,2.6509,0,0,0,0,0,0,0,0,2.6501,2.65,2.6499,2.65,2.6501,2.6503,2.6494,2.6488,2.6514,2.651,2.6517,2.6518,2.651,2.6509,2.6507,2.6486,2.6486,2.651,2.6509,2.6509,2.6508,0,0,0,0,0,0,0,2.6501,2.65,2.6488,2.6499,2.65,2.6506,2.6506,2.6493,2.6504,2.651,2.6512,2.6512,2.651,2.6508,2.6507,2.6486,2.651,2.6509,2.6508,2.6508,2.6442,2.644,0,0,0,0,0,0,2.65,2.65,2.6488,2.6488,2.6504,2.6505,2.6505,2.6501,2.6504,2.6506,2.6511,2.6513,2.6509,2.6508,2.6507,2.6475,2.6509,2.6508,2.6507,2.6443,2.6441,2.644,0,0,0,0,0,0,2.6501,2.6499,2.6488,2.6495,2.6494,2.6503,2.6499,2.6501,2.6498,2.6505,2.6507,2.6507,2.651,2.6508,2.6491,2.6475,2.6507,2.6506,2.6444,2.6442,2.6441,2.6411,0,0,0,0,0,0,2.6501,2.6499,2.649,2.6494,2.6493,2.6473,2.6498,2.65,2.6497,2.65,2.6501,2.6502,2.6511,2.6492,2.649,2.6474,2.6505,2.6445,2.6443,2.6441,2.6413,2.6408,2.6404,0,0,0,0,0,2.6501,2.6481,2.6489,2.6487,2.6482,2.6472,2.6471,2.6482,2.6495,2.6486,2.649,2.6502,2.6478,2.649,2.6488,2.6472,2.6446,2.6444,2.6441,2.6415,2.6409,2.6404,0,0,0,0,0,0,2.6472,2.6481,2.6491,2.6471,2.6471,2.6477,2.6464,2.6476,2.6471,2.6473,2.6486,2.6486,2.6466,2.6467,2.6482,2.6445,2.6464,2.6461,2.6445,2.644,2.6435,2.6435,2.6504,0,0,0,0,0,2.6464,2.6456,2.6464,2.6446,2.6445,2.6455,2.6451,2.6459,2.6459,2.6459,2.6462,2.646,2.6451,2.6446,2.6439,2.6414,2.6414,2.6401,2.6397,2.6393,2.639,2.6376,2.637,2.6432,2.6432,2.6432,0,0,2.6446,2.645,2.6444,2.644,2.6441,2.6431,2.6454,2.6444,2.6436,2.6457,2.644,2.6442,2.6441,2.642,2.641,2.642,2.6373,2.639,2.6387,2.6385,2.6372,2.6366,2.6361,2.643,2.643,2.6431,0,0,2.6408,2.6411,2.6395,2.6396,2.6397,2.6404,2.64,2.6404,2.6406,2.6391,2.6406,2.6396,2.6382,2.6381,2.6378,2.6339,2.635,2.6336,2.6312,2.6298,2.6293,2.6289,2.6274,2.6269,2.6333,2.6333,2.6333,0,2.6385,2.6372,2.6386,2.6374,2.6371,2.6391,2.6374,2.6374,2.6372,2.6369,2.638,2.6363,2.6363,2.6341,2.6332,2.6329,2.6324,2.6336,2.6293,2.6289,2.6285,2.6271,2.6266,2.6331,2.6332,2.6332,2.6332,0,2.6343,2.6334,2.6322,2.6321,2.6317,2.6303,2.6313,2.6307,2.6316,2.6321,2.6304,2.6305,2.6298,2.6294,2.6302,2.6273,2.6279,2.6291,2.631,2.6277,2.6264,2.6259,2.6329,2.633,2.633,2.6331,0,0,2.6287,2.6294,2.6289,2.6288,2.6291,2.6283,2.627,2.6264,2.6258,2.6257,2.6245,2.6232,2.6244,2.6241,2.6249,2.6237,2.6205,2.6251,2.6251,2.6241,2.6171,2.6161,2.6155,2.6212,2.6211,2.6211,2.6171,0,2.6249,2.6228,2.6239,2.6216,2.6207,2.6225,2.6213,2.6213,2.6217,2.6209,2.6213,2.6204,2.622,2.6219,2.6208,2.6211,2.6191,2.6214,2.62,2.6199,2.6199,2.6148,2.6137,2.61,2.6166,2.6165,2.6165,0,2.6203,2.62,2.6176,2.618,2.6176,2.6166,2.6161,2.6154,2.6153,2.6157,2.6154,2.6164,2.615,2.617,2.6149,2.6165,2.616,2.616,2.6159,2.6158,2.6179,2.6144,2.6088,2.6082,2.6157,2.6157,2.6158,0,2.6163,2.6153,2.6137,2.6136,2.614,2.6132,2.6133,2.6134,2.613,2.6125,2.6123,2.6116,2.6112,2.6106,2.6115,2.6128,2.6093,2.6113,2.6094,2.6094,2.6085,2.6085,2.6027,2.6083,2.6083,2.6083,2.6083,0,2.6119,2.6103,2.6119,2.6109,2.6091,2.6104,2.6086,2.6089,2.609,2.6079,2.6095,2.6084,2.6096,2.6087,2.6093,2.6075,2.6073,2.6075,2.6076,2.6073,2.6072,2.6069,2.6071,2.6082,2.6082,2.6082,2.6083,0,2.6071,2.6081,2.6065,2.6071,2.6072,2.6058,2.6063,2.6053,2.6058,2.6045,2.6043,2.6051,2.6041,2.6049,2.6038,2.6042,2.6018,2.6023,2.6018,2.6019,2.5999,2.6001,2.5936,2.5927,2.599,2.5989,2.5989,0,2.6043,2.6031,2.6036,2.6031,2.6031,2.6023,2.6019,2.6031,2.6026,2.6024,2.6014,2.6006,2.6,2.5982,2.5986,2.5978,2.5983,2.5961,2.5982,2.5978,2.5981,2.5982,2.598,2.5956,2.5955,2.5955,2.5954,0,2.599,2.5996,2.599,2.5986,2.5981,2.5977,2.5975,2.597,2.5982,2.5976,2.5966,2.5961,2.5951,2.5942,2.5935,2.5935,2.5946,2.5948,2.5943,2.5939,2.5936,2.5936,2.6005,2.5949,2.595,2.595,2.595,2.595,2.595,2.5941,2.5943,2.5935,2.5935,2.5933,2.5924,2.5929,2.5921,2.5915,2.5922,2.591,2.5909,2.5901,2.59,2.589,2.5899,2.5891,2.589,2.5887,2.5884,2.5938,2.5888,2.5889,2.5889,2.5889,2.5889,0,2.5898,2.59,2.5894,2.5891,2.5885,2.5897,2.5896,2.5889,2.5879,2.5878,2.5871,2.586,2.5851,2.5854,2.5846,2.5837,2.5841,2.5834,2.5834,2.5834,2.5877,2.5882,2.583,2.583,2.583,2.583,2.583,2.583,2.587,2.5854,2.586,2.5843,2.5845,2.5835,2.5832,2.583,2.5829,2.5816,2.5809,2.5812,2.5812,2.5803,2.5795,2.5796,2.5792,2.5782,2.5785,2.5825,2.5831,2.5836,2.5841,2.5781,2.5781,2.5743,2.5742,2.5742]}]]